Pittsfield, MA

4:07 AM EST on December 07, 2019 (GMT -0500)
Pittsfield Municipal

Weather History for KPSF - August, 2019

Change the Weather History Date:

Thursday, August 29, 2019

  Actual Average Record
Temperature  
Mean Temperature 64 °F 64 °F  
Max Temperature 75 °F 75 °F 90 °F (1953)
Min Temperature 53 °F 54 °F 38 °F (1965)
Degree Days  
Heating Degree Days 0 2  
Month to date heating degree days 22 37  
Since 1 June heating degree days 89 169  
Since 1 July heating degree days 22 68  
Cooling Degree Days 0 2  
Month to date cooling degree days 116 92  
Year to date cooling degree days 392 269  
Since 1 June cooling degree days 386 256  
Growing Degree Days 14 (Base 50)    
Moisture  
Dew Point 57 °F    
Average Humidity 77    
Maximum Humidity 93    
Minimum Humidity 46    
Precipitation  
Precipitation 0.00 in 0.12 in 1.81 in (2002)
Month to date precipitation 1.92 3.86  
Year to date precipitation 28.06 29.55  
Sea Level Pressure  
Sea Level Pressure 29.84 in    
Wind  
Wind Speed 6 mph ()    
Max Wind Speed 16 mph    
Max Gust Speed 23 mph    
Visibility 10.0 miles    
Events      
T = Trace of Precipitation, MM = Missing Value Source: Averaged Metar Reports

Daily Weather History Graph

Daily Weather History Graph

Search for Another Location

Airport or City:

Astronomy

Aug. 29, 2019 Rise Set
Actual Time 6:14 AM EDT 7:32 PM EDT
Civil Twilight 5:45 AM EDT 8:01 PM EDT
Nautical Twilight 5:10 AM EDT 8:36 PM EDT
Astronomical Twilight 4:33 AM EDT 9:13 PM EDT
Moon 4:53 AM EDT (8/29) 7:29 PM EDT (8/29)
Length of Visible Light 14h 16m
Length of Day
13h 17m
Waning Crescent, 1% of the Moon is Illuminated
Aug 29
Waning Crescent
Aug 30
New
Sep 5
First Quarter
Sep 14
Full
Sep 21
Last Quarter

Hourly Weather History & Observations

Time (EDT) Temp. Dew Point Humidity Pressure Visibility Wind Dir Wind Speed Gust Speed Precip Events Conditions
12:03 AM 66.0 °F 63.0 °F 90% 29.85 in 10.0 mi NNW 6.9 mph - N/A   Overcast
12:17 AM 66.0 °F 63.0 °F 90% 29.85 in 10.0 mi WNW 8.1 mph - N/A   Overcast
12:47 AM 64.9 °F 62.1 °F 90% 29.86 in 10.0 mi West 6.9 mph - N/A   Overcast
12:54 AM 64.9 °F 61.0 °F 87% 29.79 in 10.0 mi West 6.9 mph - N/A   Overcast
1:54 AM 64.0 °F 61.0 °F 90% 29.78 in 10.0 mi WNW 5.8 mph - N/A   Overcast
2:54 AM 62.1 °F 59.0 °F 90% 29.78 in 10.0 mi West 4.6 mph - N/A   Mostly Cloudy
3:54 AM 61.0 °F 57.0 °F 87% 29.79 in 10.0 mi WSW 5.8 mph - N/A   Clear
4:54 AM 60.1 °F 57.0 °F 90% 29.80 in 10.0 mi West 9.2 mph - N/A   Clear
5:54 AM 62.1 °F 57.9 °F 86% 29.81 in 10.0 mi WNW 11.5 mph - N/A   Clear
6:10 AM 62.1 °F 59.0 °F 90% 29.87 in 10.0 mi WNW 6.9 mph - N/A   Mostly Cloudy
6:54 AM 62.1 °F 59.0 °F 90% 29.82 in 10.0 mi WNW 8.1 mph - N/A   Overcast
7:28 AM 63.0 °F 59.0 °F 87% 29.88 in 10.0 mi Calm Calm - N/A   Overcast
7:54 AM 63.0 °F 57.9 °F 84% 29.82 in 10.0 mi Calm Calm - N/A   Overcast
8:54 AM 64.9 °F 59.0 °F 81% 29.82 in 10.0 mi NW 9.2 mph - N/A   Mostly Cloudy
9:10 AM 66.0 °F 59.0 °F 78% 29.88 in 10.0 mi WNW 10.4 mph - N/A   Scattered Clouds
9:54 AM 66.9 °F 59.0 °F 76% 29.83 in 10.0 mi NW 8.1 mph - N/A   Clear
10:54 AM 70.0 °F 60.1 °F 71% 29.84 in 10.0 mi WNW 8.1 mph - N/A   Clear
11:54 AM 71.1 °F 60.1 °F 68% 29.84 in 10.0 mi West 10.4 mph - N/A   Partly Cloudy
12:54 PM 73.9 °F 59.0 °F 59% 29.83 in 10.0 mi NW 10.4 mph 20.7 mph N/A   Partly Cloudy
1:54 PM 73.0 °F 55.0 °F 53% 29.83 in 10.0 mi NW 10.4 mph - N/A   Clear
2:54 PM 73.0 °F 54.0 °F 51% 29.83 in 10.0 mi NW 10.4 mph 20.7 mph N/A   Partly Cloudy
3:54 PM 75.0 °F 55.0 °F 50% 29.83 in 10.0 mi NW 11.5 mph - N/A   Partly Cloudy
4:54 PM 73.0 °F 52.0 °F 48% 29.83 in 10.0 mi WNW 10.4 mph - N/A   Partly Cloudy
5:54 PM 72.0 °F 52.0 °F 49% 29.84 in 10.0 mi WNW 9.2 mph 19.6 mph N/A   Clear
6:54 PM 69.1 °F 53.1 °F 57% 29.86 in 10.0 mi WNW 11.5 mph - N/A   Clear
7:54 PM 64.0 °F 52.0 °F 65% 29.89 in 10.0 mi West 5.8 mph - N/A   Clear
8:54 PM 61.0 °F 54.0 °F 78% 29.91 in 10.0 mi WSW 6.9 mph - N/A   Clear
9:54 PM 60.1 °F 54.0 °F 80% 29.93 in 10.0 mi SW 4.6 mph - N/A   Clear
10:54 PM 57.0 °F 53.1 °F 87% 29.93 in 10.0 mi Calm Calm - N/A   Clear
11:54 PM 55.0 °F 53.1 °F 93% 29.93 in 10.0 mi Calm Calm - N/A   Clear